Location: Newark
(42.7133°N, 87.7910°W)
Time: 02:53:37
(UTC+00:00)

Tiros 1 - Pass Details

Date: 23 September 2019
Orbit: 630 x 664 km, 48.4° (Epoch: 21 October)

Event Time Altitude Azimuth Distance (km) Brightness Sun altitude
Rises 21:59:54 0° 294° (WNW) 2,955 11.3 18.5°
Reaches altitude 10° 22:02:17 10° 298° (WNW) 2,038 10.5 18.1°
Maximum altitude 22:06:56 62° 19° (NNE) 721 7.5 17.3°
Drops below altitude 10° 22:11:31 10° 101° (E) 2,013 9.2 16.5°
Sets 22:13:51 0° 105° (ESE) 2,916 10.0 16.1°
